Volver al catálogo

STARLINK-31433

ActivoComunicacionesVLEO
NORAD 59243·PAYLOAD·🇺🇸 United States

Lanzado Mar 16, 2024 desde Cape Canaveral Space Force Station

Loading…

Próximos Pases (próximas 24 horas)

TLE

ActualizadoSource: CelesTrak SupGP

Época: Sep 15, 2026, 03:22 UTC

1 59243C 24049N   26258.14076389  .00058411  00000+0  21155-2 0  2585
2 59243  43.0016 153.5390 0001351 277.0905 352.1325 15.27552111    17

Sigue STARLINK-31433 en tiempo real con AllMySat

Download on the App Store